Weather History for Page, AZ

Change the Weather History Date:

Sunday, January 19, 2014

  Actual Average Record
Temperature  
Mean Temperature 40 °F -  
Max Temperature 52 °F 44 °F 60 °F (1959)
Min Temperature 28 °F 27 °F 8 °F (1968)
Degree Days  
Heating Degree Days 25    
Moisture  
Dew Point 17 °F    
Average Humidity 40    
Maximum Humidity 56    
Minimum Humidity 16    
Precipitation  
Precipitation 0.00 in - - ()
Sea Level Pressure  
Sea Level Pressure 30.28 in    
Wind  
Wind Speed 1 mph (WNW)    
Max Wind Speed 5 mph    
Max Gust Speed -    
Visibility 8 miles    
Events      
Averages and records for this station are not official NWS values.
T = Trace of Precipitation, MM = Missing Value Source: NWS Daily Summary

Daily Weather History Graph

Daily Weather History Graph

Search for Another Location

Airport:

Trip Planner

Search our weather history database for the weather conditions in past years. The results will help you decide how hot, cold, wet, or windy it might be!

Date:

Astronomy

Jan. 19, 2014 Rise Set
Actual Time 7:36 AM MST 5:37 PM MST
Civil Twilight 7:08 AM MST 6:05 PM MST
Nautical Twilight 6:36 AM MST 6:36 PM MST
Astronomical Twilight 6:05 AM MST 7:07 PM MST
Moon 9:12 PM MST (1/19) 9:14 AM MST (1/19)
Length of Visible Light 10h 56m
Length of Day
10h 00m
Waning Gibbous, 89% of the Moon is Illuminated
Jan 19
Waning Gibbous
Jan 23
Last Quarter
Jan 30
New
Feb 6
First Quarter
Feb 14
Full

Hourly Weather History & Observations

Time (MST) Temp. Windchill Dew Point Humidity Pressure Visibility Wind Dir Wind Speed Gust Speed Precip Events Conditions
12:53 AM 34.0 °F - 17.1 °F 50% 30.30 in 7.0 mi Calm Calm - N/A   Clear
1:53 AM 35.1 °F - 16.0 °F 46% 30.29 in 10.0 mi Calm Calm - N/A   Clear
2:53 AM 34.0 °F 29.8 °F 15.1 °F 46% 30.30 in 10.0 mi SW 4.6 mph - N/A   Clear
3:53 AM 32.0 °F - 15.1 °F 50% 30.31 in 7.0 mi Calm Calm - N/A   Clear
4:53 AM 30.9 °F - 15.1 °F 52% 30.30 in 6.0 mi Calm Calm - N/A   Haze
5:53 AM 32.0 °F 28.7 °F 15.1 °F 50% 30.30 in 3.0 mi West 3.5 mph - N/A   Haze
6:53 AM 30.0 °F 26.5 °F 15.1 °F 54% 30.34 in 10.0 mi West 3.5 mph - N/A   Clear
7:53 AM 28.9 °F - 15.1 °F 56% 30.37 in 10.0 mi Calm Calm - N/A   Clear
8:53 AM 34.0 °F - 16.0 °F 48% 30.36 in 10.0 mi Calm Calm - N/A   Clear
9:53 AM 37.0 °F 33.3 °F 15.1 °F 41% 30.36 in 10.0 mi West 4.6 mph - N/A   Clear
10:53 AM 39.0 °F 35.7 °F 17.1 °F 41% 30.36 in 10.0 mi West 4.6 mph - N/A   Clear
11:53 AM 43.0 °F 41.3 °F 17.1 °F 35% 30.32 in 10.0 mi West 3.5 mph - N/A   Clear
12:53 PM 46.0 °F 43.9 °F 18.0 °F 33% 30.28 in 10.0 mi NNE 4.6 mph - N/A   Clear
1:53 PM 50.0 °F - 19.0 °F 29% 30.22 in 10.0 mi Calm Calm - N/A   Clear
2:53 PM 50.0 °F - 19.0 °F 29% 30.22 in 10.0 mi North 3.5 mph - N/A   Clear
3:53 PM 52.0 °F - 19.0 °F 27% 30.21 in 10.0 mi Calm Calm - N/A   Clear
4:53 PM 51.1 °F - 19.0 °F 28% 30.20 in 10.0 mi Calm Calm - N/A   Clear
5:53 PM 45.0 °F - 18.0 °F 34% 30.22 in 10.0 mi Calm Calm - N/A   Clear
6:53 PM 43.0 °F - 18.0 °F 37% 30.23 in 7.0 mi Calm Calm - N/A   Clear
7:53 PM 39.9 °F - 18.0 °F 41% 30.25 in 10.0 mi Calm Calm - N/A   Clear
8:53 PM 39.0 °F - 18.0 °F 43% 30.24 in 5.0 mi Calm Calm - N/A   Haze
9:53 PM 37.0 °F - 18.0 °F 46% 30.25 in 4.0 mi Calm Calm - N/A   Haze
10:53 PM 36.0 °F - 18.0 °F 48% 30.25 in 6.0 mi Calm Calm - N/A   Haze
11:53 PM 35.1 °F - 17.1 °F 48% 30.25 in 8.0 mi Calm Calm - N/A   Clear